CAPE
0 0 0 0 0 0 0 0 0 72 5 0 0 0 0 0 0 0 0 0 25 174 4 0 0 0 0 0 0 0 0 0 0 0 0 0 0 0 0 0 0 0 0 0 0 0 0 0 0
0 0 0 0 0 0 0 0 18 6 26 0 0 0 0 0 0 0 0 0 14 248 73 0 0 0 0 0 0 0 0 0 0 0 0 0 0 0 0 0 0 0 0 0 0 0 0 0 0
0 0 0 0 0 0 0 0 0 0 0 0 0 0 0 0 0 0 20 1 9 466 191 18 0 0 0 0 0 0 0 0 0 0 0 0 0 0 0 0 0 0 6 9 17 17 1 1 5
0 0 0 0 0 0 1 19 66 4 0 0 0 0 0 0 0 0 0 0 0 115 355 168 0 0 0 0 0 0 0 0 0 0 0 0 0 0 0 0 0 0 1 67 101 49 32 11 2
0 0 0 0 0 0 0 0 1 10 1 8 3 0 0 0 0 0 0 0 0 0 225 353 130 0 7 0 0 0 0 0 0 0 14 15 10 41 138 199 229 296 345 323 281 244 96 81 93
0 0 0 0 0 0 0 0 28 37 10 6 9 0 0 0 0 0 0 0 0 0 24 508 220 43 48 68 35 0 0 6 3 23 26 21 95 156 254 446 526 571 463 333 206 238 255 125 97
0 0 0 0 0 0 0 0 1 1 2 0 0 0 0 0 1 0 0 9 9 0 1 684 393 294 74 103 134 33 29 79 66 102 60 124 157 213 305 433 383 394 302 216 284 256 240 168 116
0 0 0 0 0 0 0 0 0 0 1 4 0 0 0 7 16 0 0 0 31 60 20 429 629 469 351 259 288 225 115 113 108 167 221 274 253 200 96 121 341 189 170 122 56 49 71 121 161
0 0 0 0 0 0 0 0 0 0 0 0 0 0 0 0 19 5 1 0 2 67 88 94 703 1130 710 436 559 651 362 209 213 286 386 389 146 77 290 610 572 380 235 143 78 10 2 9 63
0 0 0 0 0 0 0 0 0 0 1 2 0 0 0 0 1 18 2 0 0 23 123 125 104 606 1068 650 522 832 617 630 514 465 508 435 415 672 529 328 609 365 245 157 70 1 0 0 0
0 0 0 0 0 0 0 0 0 0 0 2 1 0 0 0 0 0 0 0 0 3 2 185 190 272 702 556 458 1018 802 552 542 531 590 586 1000 868 658 405 426 267 196 161 208 74 3 1 0
0 0 0 0 0 0 0 0 1 13 2 1 1 0 1 0 0 0 0 0 0 0 0 0 331 334 512 542 631 1180 1111 938 757 894 893 1115 741 539 502 561 512 391 306 391 210 111 129 62 55
0 0 0 0 0 0 2 0 4 0 1 0 6 1 1 0 2 0 0 0 0 0 0 0 502 329 669 750 731 704 1070 1193 1056 880 979 752 682 697 848 821 630 476 416 240 222 106 112 33 31
0 0 0 0 0 0 5 0 0 0 0 0 2 0 0 9 6 0 0 0 0 0 0 0 700 446 864 678 885 939 1029 927 691 488 426 429 625 675 670 762 722 636 570 299 236 69 2 4 13
0 0 0 0 0 0 0 0 0 0 0 0 0 4 8 10 3 0 0 0 0 0 0 0 591 888 940 1139 794 1545 1147 665 373 302 425 606 705 752 737 737 669 615 565 366 232 76 1 92 4
0 0 0 0 0 0 5 0 0 0 0 0 0 5 11 5 1 0 0 0 0 0 0 6 327 1145 1191 1483 1382 1168 947 460 448 417 510 504 743 838 853 718 533 718 469 219 260 128 152 41 103
0 0 0 0 0 0 5 0 0 0 0 0 0 0 0 0 0 0 0 0 0 0 0 126 254 982 1328 1641 1756 1485 714 578 419 430 444 612 803 904 656 633 759 599 387 276 184 225 44 15 21
0 0 0 0 0 0 0 0 0 3 9 3 5 0 0 0 0 0 0 0 0 17 148 297 552 991 1412 1556 1520 1143 592 513 552 505 484 667 676 703 659 809 621 540 213 181 285 48 84 32 25
0 0 0 0 0 0 0 0 0 2 9 2 0 0 0 2 0 0 0 5 46 73 396 757 632 617 1306 1470 1173 795 542 458 510 467 592 551 619 570 522 655 644 382 137 258 281 135 121 70 90
0 0 0 0 0 0 0 0 1 1 0 0 0 0 0 0 12 6 4 85 115 263 476 608 549 848 1226 1043 727 516 430 467 499 611 602 644 604 709 575 586 440 419 459 307 316 162 131 98 53
0 0 0 0 0 0 0 0 0 0 1 2 0 0 0 0 0 0 18 266 306 372 431 485 622 1104 826 806 510 689 683 495 482 380 297 751 625 562 428 290 317 403 411 278 309 248 109 45 69
0 0 0 0 0 0 0 0 0 0 0 0 0 0 0 0 0 0 90 378 424 506 560 578 715 774 600 804 574 563 539 345 428 535 653 722 735 605 234 221 241 300 308 491 458 370 181 79 109
0 0 0 0 0 0 0 0 0 0 0 0 0 2 1 0 6 1 415 488 521 576 630 687 859 679 648 377 677 671 531 344 185 294 534 646 611 446 411 273 133 294 217 146 181 172 126 193 172
0 0 0 0 0 0 0 0 0 0 0 0 0 0 0 0 0 177 506 551 575 567 649 844 784 755 617 558 723 623 490 412 627 578 491 530 363 565 438 248 197 439 293 157 101 119 140 108 119
0 0 0 0 0 0 0 0 0 0 0 0 0 0 0 1 38 441 550 538 538 558 715 759 710 790 716 588 530 394 547 579 542 495 343 603 408 389 217 181 212 621 366 68 124 18 76 79 95
0 0 0 0 0 0 0 0 0 0 0 0 0 0 0 5 378 491 538 554 515 617 637 620 704 776 630 523 392 381 491 521 496 294 448 596 328 453 572 411 525 653 303 28 36 99 193 103 87
0 0 0 0 0 0 0 0 0 0 0 0 0 0 2 330 469 511 496 533 549 576 576 602 735 633 469 342 313 307 427 452 519 366 482 686 855 666 511 544 482 393 78 85 37 258 143 146 17
0 0 0 0 0 0 0 0 0 3 0 0 0 0 0 423 481 468 562 552 550 534 602 671 646 483 259 310 232 297 104 165 190 300 230 719 504 325 241 463 396 139 42 155 294 165 469 151 100
0 0 0 0 0 0 0 0 96 11 0 0 0 0 3 530 499 517 507 563 546 499 562 586 495 214 201 203 239 208 242 229 135 163 356 572 558 343 189 213 66 21 38 113 107 140 287 81 21
0 0 0 0 0 0 0 0 0 0 0 0 0 0 214 490 494 504 466 482 519 494 489 427 167 132 183 145 237 95 179 169 308 146 194 296 462 296 178 89 50 30 6 40 92 101 99 77 14
CIN
0 0 0 0 0 0 0 0 0 -10 -20 0 0 0 0 0 0 0 0 0 -33 -270 -212 0 0 0 0 0 0 0 0 0 0 0 0 0 0 0 0 0 0 0 0 0 0 0 0 0 0
0 0 0 0 0 0 0 0 -38 -6 -7 0 0 0 0 0 0 0 0 0 -26 -266 -470 0 0 0 0 0 0 0 0 0 0 0 0 0 0 0 0 0 0 0 0 0 0 0 0 0 -0
0 0 0 0 0 0 0 -6 0 0 0 0 0 0 0 0 0 0 -62 -5 -28 -228 -400 -506 0 0 0 0 0 0 0 0 0 0 0 0 0 0 0 0 0 0 -136 -236 -213 -223 0 -0 0
0 0 0 0 0 0 -44 -11 -17 -59 -3 0 0 0 0 0 0 0 0 0 0 -157 -298 -412 0 0 0 0 0 0 0 0 0 0 0 0 0 0 0 0 0 0 -5 -63 -69 -124 -139 -166 -2
0 0 0 0 0 0 0 0 -6 -48 -4 -6 -17 0 0 0 0 0 -7 0 0 0 -175 -316 -440 0 -432 0 0 0 0 0 0 0 -285 -282 -150 -194 -110 -56 -22 -5 0 0 -0 -18 -91 -110 -96
0 0 0 0 0 0 0 0 -5 -6 -10 -14 -7 0 0 0 0 0 0 0 0 0 -92 -265 -368 -478 -492 -457 -451 0 0 -182 -199 -335 -299 -280 -216 -144 -92 -33 -5 -0 0 0 -5 -0 -7 -70 -92
0 0 0 0 0 0 0 0 -1 -1 -7 0 -3 0 0 0 -5 0 0 -46 -56 0 -18 -214 -310 -382 -477 -445 -418 -444 -442 -399 -374 -318 -294 -248 -212 -142 -103 -64 -59 -23 -22 -26 -2 -3 -1 -19 -61
0 0 0 0 0 0 0 0 0 0 -4 -18 0 0 0 -11 -33 0 0 0 -27 -35 -47 -146 -246 -322 -384 -425 -413 -396 -425 -426 -404 -324 -260 -229 -210 -196 -225 -207 -128 -121 -108 -102 -138 -121 -76 -35 -9
0 0 0 0 0 0 0 0 0 0 0 0 0 0 0 0 -10 -16 -7 0 -2 -12 -33 -74 -161 -262 -296 -351 -343 -332 -380 -433 -397 -317 -259 -243 -301 -285 -168 -109 -94 -107 -101 -105 -114 -127 -137 -114 -88
0 0 0 0 0 0 0 0 0 -1 -28 -50 0 0 0 0 -4 -22 -2 0 -1 -10 -16 -60 -100 -145 -260 -222 -265 -264 -310 -312 -350 -298 -247 -255 -198 -120 -111 -87 -57 -102 -97 -106 -111 -21 0 0 0
0 0 0 0 0 -4 -6 -4 0 0 0 -15 -27 0 -0 0 -0 0 0 -0 0 -6 -10 -31 -107 -127 -206 -257 -225 -223 -242 -304 -321 -291 -232 -202 -90 -48 -30 -68 -92 -107 -102 -80 -38 -113 -206 -21 0
0 0 0 0 0 0 0 0 -7 -10 -23 -33 -2 -3 -5 0 0 0 0 0 0 0 0 0 -104 -136 -164 -196 -182 -175 -159 -199 -239 -223 -197 -114 -145 -134 -120 -70 -34 -41 -44 -30 -44 -109 -68 -117 -127
0 0 0 0 0 0 -41 0 -18 0 -8 0 -11 -3 -4 0 -8 0 0 0 0 0 0 0 -96 -138 -133 -160 -144 -138 -106 -97 -120 -139 -122 -170 -183 -126 -39 -29 -50 -41 -15 -32 -45 -44 -39 -49 -8
0 0 0 0 0 0 -6 0 0 0 -5 0 -8 0 0 -3 -14 0 0 0 0 0 0 0 -68 -113 -131 -199 -154 -105 -75 -61 -114 -157 -193 -239 -197 -129 -88 -33 -26 -22 -12 -25 -23 -39 -7 -22 -16
0 0 0 0 0 0 0 0 0 0 0 0 0 -2 -6 -12 -9 -1 0 0 0 0 0 0 -38 -110 -157 -192 -191 -79 -90 -123 -181 -213 -168 -130 -158 -117 -77 -53 -15 -9 -12 -18 -24 -32 -7 -13 -23
0 0 0 0 0 0 -3 0 0 0 0 0 0 -2 -3 -9 0 0 0 0 0 0 0 -55 -30 -102 -171 -204 -176 -112 -136 -232 -168 -166 -148 -162 -109 -81 -51 -44 -46 -3 -23 -31 -13 -18 -12 -16 -8
0 0 0 0 0 0 -1 0 0 0 0 0 0 0 0 0 0 0 0 0 0 0 0 -58 -73 -94 -184 -171 -122 -102 -188 -212 -215 -144 -131 -74 -55 -34 -76 -45 -2 -9 -18 -14 -11 -10 -13 -16 -14
0 0 0 0 0 0 -1 0 0 -2 -4 -2 -5 -0 0 0 0 0 0 0 0 -79 -102 -112 -115 -131 -182 -175 -127 -153 -201 -196 -145 -128 -113 -39 -34 -17 -29 -5 -7 -11 -29 -15 -6 -18 -15 -14 -10
0 0 0 0 0 0 0 0 0 -1 -4 -18 0 0 0 -5 0 0 0 -42 -126 -135 -169 -177 -203 -244 -206 -176 -171 -185 -191 -179 -131 -103 -47 -59 -27 -20 -24 -9 -5 -13 -26 -7 -3 -9 -7 -14 -10
0 0 0 0 0 0 0 -1 -0 -9 0 0 0 0 0 0 -6 -8 -9 -79 -137 -211 -260 -312 -331 -294 -235 -220 -226 -203 -173 -113 -99 -33 -35 -41 -29 -15 -19 -7 -8 -2 -2 -14 -4 -11 -9 -8 -15
0 0 0 0 0 0 0 0 0 0 -0 -1 0 0 0 0 0 0 -2 -94 -206 -284 -358 -393 -379 -284 -281 -222 -224 -111 -77 -64 -51 -50 -40 -19 -29 -24 -23 -13 -9 -3 -10 -13 -7 -8 -13 -21 -12
0 0 0 0 0 0 0 0 0 0 0 0 0 0 0 0 0 -5 -27 -133 -222 -315 -379 -412 -363 -316 -285 -175 -161 -102 -62 -72 -41 -16 -16 -23 -17 -11 -20 -10 -4 -13 -15 -3 -3 -8 -14 -11 -9
0 0 0 0 0 0 0 0 0 0 0 0 0 -4 -1 0 -3 -8 -67 -168 -238 -334 -385 -369 -302 -294 -223 -224 -97 -52 -50 -56 -73 -16 -13 -10 -13 -17 -11 -7 -21 -8 -21 -27 -18 -11 -14 -15 -16
0 0 0 0 0 0 0 0 0 0 0 0 0 0 0 0 0 -26 -110 -201 -267 -357 -357 -294 -276 -231 -199 -130 -54 -42 -70 -35 -7 -9 -13 -13 -27 -14 -10 -13 -14 -9 -19 -17 -16 -17 -21 -22 -30
0 0 0 0 0 0 0 0 0 0 0 0 0 0 0 -1 -3 -74 -146 -211 -296 -341 -307 -280 -249 -181 -132 -88 -78 -102 -53 -24 -15 -14 -12 -7 -13 -19 -22 -15 -11 -4 -9 -16 -9 -32 -26 -28 -26
0 0 0 0 0 0 0 0 0 0 0 0 0 0 0 -7 -62 -108 -172 -217 -302 -308 -295 -269 -206 -140 -98 -86 -107 -100 -51 -24 -11 -13 -11 -6 -28 -11 -5 -6 -6 -2 -7 -11 -23 -20 -18 -21 -20
0 0 0 0 0 0 0 0 0 0 0 0 0 0 -4 -36 -87 -146 -173 -236 -281 -289 -272 -227 -155 -113 -109 -124 -131 -107 -43 -24 -4 -7 -8 -3 -3 -2 -9 -3 -3 -3 -17 -24 -26 -14 -24 -14 -21
0 0 0 0 0 0 0 0 0 -5 0 0 0 0 0 -31 -71 -129 -176 -232 -264 -261 -215 -163 -124 -117 -156 -136 -140 -84 -119 -69 -43 -9 -10 -3 -6 -8 -11 -4 -4 -11 -58 -11 -8 -26 -5 -13 -22
0 0 0 0 0 0 0 0 -17 -32 0 0 0 0 -24 -46 -87 -125 -170 -215 -233 -231 -187 -147 -121 -181 -171 -167 -111 -88 -56 -51 -57 -28 -2 -2 -4 -3 -15 -9 -16 -80 -59 -22 -35 -17 -2 -23 -36
0 0 0 0 0 0 0 0 0 0 0 0 0 0 -23 -55 -90 -115 -174 -220 -221 -202 -183 -156 -210 -200 -183 -181 -89 -109 -63 -27 -6 -9 -9 -7 -6 -7 -8 -11 -20 -57 -3 -33 -24 -20 -3 -12 -49
Wind_Speed
14 15 19 17 14 18 6 24 18 14 14 14 17 18 24 22 27 20 13 14 15 14 13 13 13 13 13 13 13 14 14 14 15 16 16 17 18 18 18 17 16 16 16 16 17 18 19 20 20
14 11 15 15 13 10 4 14 23 22 13 13 15 15 15 18 22 19 14 15 13 13 12 11 11 12 12 12 12 12 12 12 13 14 15 16 17 18 19 18 17 17 16 17 17 18 19 20 20
14 16 20 14 10 25 25 20 22 10 17 17 19 14 16 15 18 19 17 14 13 12 11 10 10 10 10 10 11 10 10 10 11 12 13 14 16 17 17 17 16 16 17 16 16 17 19 20 20
13 14 18 13 10 9 10 12 16 12 16 15 18 19 16 12 13 17 18 13 10 10 11 8 9 8 8 8 9 9 9 8 9 10 12 13 15 16 16 16 15 14 14 17 19 18 19 21 21
22 19 15 15 14 12 29 23 11 24 22 17 12 16 18 14 14 13 16 12 9 7 8 8 7 7 6 6 7 7 7 7 7 9 11 12 15 16 17 16 15 13 14 15 19 18 23 24 24
17 18 23 23 13 10 15 25 25 25 23 21 15 13 15 11 12 14 14 12 10 6 5 6 5 5 4 5 5 5 5 5 5 6 9 11 14 16 18 16 16 14 13 14 16 17 22 26 24
22 22 24 26 36 33 22 22 25 24 24 20 18 11 16 13 14 15 15 13 10 9 4 6 3 3 3 4 3 3 3 2 3 4 6 10 14 16 18 17 16 13 14 14 14 16 18 22 23
22 28 36 38 36 32 32 32 24 24 21 16 18 13 16 16 13 16 13 12 6 5 2 3 3 1 3 4 4 4 2 1 1 2 5 9 13 15 16 14 13 12 11 12 15 16 17 18 20
24 31 36 31 30 33 35 30 23 21 15 22 20 20 20 21 16 23 20 14 14 9 4 3 2 3 3 5 6 5 5 3 1 2 5 9 12 14 13 10 10 10 9 11 13 14 16 16 17
26 34 34 34 40 43 39 38 34 21 20 21 31 18 13 13 21 22 20 22 19 21 8 8 7 6 4 6 8 7 7 5 3 3 5 7 10 10 13 20 11 12 10 11 13 11 12 15 17
27 39 31 37 33 34 41 42 38 27 25 18 17 28 29 31 30 25 25 21 20 17 18 12 12 10 8 8 8 7 6 6 6 4 4 5 8 12 16 14 13 11 10 13 12 10 10 11 11
38 36 39 42 40 44 47 45 45 40 35 33 42 35 27 28 33 36 31 26 26 25 27 30 12 13 11 8 8 8 7 6 5 4 3 7 11 14 12 14 14 14 12 12 13 10 9 9 14
36 37 36 42 45 43 40 50 49 48 42 41 42 35 37 32 30 29 28 28 29 29 28 28 15 14 12 9 8 8 7 6 5 5 6 7 9 11 13 12 14 16 14 14 15 18 16 15 12
39 36 43 43 45 46 47 52 46 48 48 45 44 32 35 39 31 33 30 32 33 31 32 31 13 12 11 10 10 9 7 6 5 5 7 8 10 12 15 17 15 16 15 16 18 18 17 18 19
46 55 56 55 50 55 42 61 44 42 42 44 42 37 40 38 30 26 27 33 33 30 30 26 10 7 9 10 10 9 8 7 7 8 9 10 9 13 16 18 19 17 17 18 19 17 18 16 19
52 56 62 55 47 36 38 69 42 33 39 40 41 41 39 29 29 25 29 33 29 26 21 14 8 2 5 6 6 9 8 8 10 8 9 9 12 13 17 20 19 18 18 16 16 15 16 18 18
51 52 54 40 30 44 35 55 48 30 33 33 35 40 39 38 29 28 29 33 27 20 16 10 6 2 3 3 4 6 8 8 9 11 11 12 12 13 16 18 19 19 19 17 15 17 14 15 15
37 35 38 51 43 38 39 43 43 33 30 31 29 29 31 33 28 30 31 32 23 18 17 10 6 2 3 1 4 6 8 8 11 11 12 13 14 16 17 18 19 17 19 19 15 14 12 12 11
34 39 48 48 42 40 40 41 50 42 34 34 31 31 24 27 27 27 31 24 17 18 15 12 6 2 2 1 1 3 4 6 7 9 11 13 16 19 18 18 18 18 18 16 13 10 9 8 11
37 46 49 52 49 43 44 44 41 40 33 27 22 22 28 34 36 28 30 15 14 14 12 9 5 2 2 3 2 3 2 4 5 7 9 13 17 17 16 16 18 18 15 13 11 10 11 11 9
38 39 40 50 45 52 45 49 47 44 23 29 29 22 25 32 39 31 21 12 12 12 10 5 4 4 3 3 2 6 6 11 11 12 13 12 13 14 13 12 11 13 12 12 10 8 7 9 8
50 33 36 42 39 46 36 51 41 28 33 29 22 25 23 23 19 20 14 8 9 9 6 5 5 4 4 4 4 6 7 7 11 13 12 13 12 12 11 10 9 9 9 8 9 7 6 7 8
49 39 41 42 43 45 43 38 47 31 29 19 21 23 23 16 17 19 5 5 7 5 4 5 5 6 5 6 6 6 6 10 13 13 12 13 13 12 9 7 8 8 7 8 10 14 13 14 15
48 43 46 46 44 48 29 28 46 20 18 26 28 23 16 15 10 8 1 3 3 4 4 5 7 7 7 6 8 7 8 13 16 15 16 16 13 9 7 8 9 9 11 14 16 16 16 15 17
48 42 45 45 46 41 27 30 25 24 16 28 33 28 15 9 9 5 2 2 2 3 5 8 9 8 7 7 8 9 11 12 14 14 15 15 13 10 10 11 11 11 14 17 17 16 16 14 14
46 45 42 43 37 39 34 38 42 18 16 23 18 8 14 7 7 4 2 1 4 5 8 10 9 8 8 8 9 10 11 11 13 15 15 15 15 12 13 12 13 15 16 18 16 15 15 12 12
47 52 45 46 39 43 40 35 24 18 21 13 9 4 5 5 4 4 4 4 5 7 9 9 9 9 9 9 10 11 11 13 16 17 15 14 14 14 14 14 15 16 18 17 16 16 14 14 13
53 40 49 46 47 44 36 33 31 12 15 13 3 6 6 6 4 4 6 5 6 9 10 9 9 9 10 10 10 11 13 14 16 14 14 14 14 15 14 14 14 17 20 17 16 14 15 15 14
46 52 49 47 44 43 41 37 17 13 11 9 7 5 3 8 5 5 7 6 8 10 10 9 10 10 11 11 12 12 13 15 15 14 15 15 14 14 13 15 16 18 18 15 15 15 15 16 16
49 46 47 49 42 43 38 36 16 13 16 11 17 6 10 9 9 9 8 8 10 11 10 10 10 11 11 11 12 13 14 17 15 16 16 15 15 14 13 14 12 13 17 17 17 16 16 17 16
Wind_Direction
282 268 254 270 294 288 147 284 216 342 346 355 358 357 341 356 355 352 61 55 67 63 79 87 86 87 85 82 82 78 75 65 56 49 45 39 33 23 15 6 0 356 352 344 334 326 321 317 312
270 290 281 288 308 316 304 198 292 278 358 344 9 3 3 354 1 37 50 52 68 68 77 85 94 94 89 87 87 82 76 68 58 50 42 36 27 19 11 5 356 351 348 341 334 327 320 316 311
274 277 284 308 307 233 260 323 323 293 261 336 352 8 352 3 16 21 40 44 62 59 75 84 99 97 91 90 92 89 79 71 62 49 39 31 22 18 14 10 1 352 342 339 335 328 321 316 309
282 292 295 306 307 196 203 355 332 322 327 339 345 343 12 19 16 16 22 38 57 56 68 85 110 107 99 96 95 95 86 76 64 48 38 29 23 17 13 7 1 356 349 337 326 324 319 311 308
264 284 293 299 304 299 276 283 354 298 323 337 4 359 6 16 19 15 18 29 33 46 55 71 114 121 107 107 101 102 96 79 60 41 31 28 19 13 8 5 1 353 347 340 329 321 308 304 302
280 282 285 287 296 305 311 302 304 309 320 323 338 337 352 17 23 22 25 19 15 17 47 56 108 141 135 131 119 117 110 85 57 39 28 21 12 7 5 2 358 352 348 342 337 329 314 301 299
273 280 281 285 275 285 308 310 305 310 316 324 334 349 5 37 19 12 6 3 7 2 21 27 59 145 179 173 162 149 133 89 49 40 24 11 5 2 360 359 356 353 348 345 341 334 325 311 302
274 279 275 273 279 290 291 294 315 314 311 348 330 329 331 352 0 356 357 3 12 356 339 15 16 3 235 223 212 197 183 166 31 21 8 3 359 355 353 355 356 353 351 347 340 333 326 320 309
272 275 274 277 284 288 286 300 315 319 325 307 333 325 329 328 324 340 337 348 346 339 301 259 306 309 273 243 243 237 229 224 263 314 343 351 350 351 352 346 348 349 347 346 338 331 326 321 314
263 268 271 278 278 275 283 286 296 306 316 310 311 319 322 334 329 328 330 336 333 329 304 258 256 269 282 284 264 255 250 255 270 294 328 340 348 350 352 352 353 351 348 341 337 331 330 325 316
265 266 274 276 281 285 283 284 289 299 300 300 315 314 314 314 323 323 319 324 324 326 326 301 254 253 270 276 274 269 270 261 261 268 302 334 347 349 349 348 356 353 345 343 339 337 337 333 329
267 268 272 275 278 279 278 285 286 290 296 299 300 305 310 310 310 312 315 319 320 319 320 319 269 253 256 270 261 269 272 265 261 272 279 334 346 342 344 349 354 347 344 339 340 339 335 337 323
265 271 273 275 275 280 287 279 284 287 293 295 297 299 304 308 308 310 308 314 319 318 317 313 289 251 252 255 263 261 266 266 276 308 321 339 342 342 345 343 344 341 337 331 328 324 329 330 320
269 272 273 275 275 278 282 283 287 287 291 294 295 294 299 300 305 308 306 312 317 322 321 319 296 250 244 250 260 273 261 275 286 311 324 325 334 340 340 340 339 338 332 327 319 318 319 317 314
272 269 269 268 274 277 288 280 283 290 291 293 292 294 298 300 303 300 311 313 319 323 323 321 310 248 237 258 241 289 279 276 292 302 321 334 335 336 336 336 336 336 331 326 321 317 316 314 308
267 268 268 268 276 255 282 269 287 291 294 294 296 294 297 301 304 308 312 313 318 324 327 334 336 222 258 241 247 271 289 282 302 305 314 321 330 332 335 334 331 334 332 330 323 317 314 310 310
262 265 268 272 257 279 275 280 287 282 285 287 295 296 294 297 300 308 311 314 322 324 329 337 344 175 181 194 273 276 291 293 289 306 317 324 328 330 334 331 332 331 329 328 325 321 317 312 307
258 257 263 273 274 278 276 281 287 287 283 288 287 298 300 296 299 306 309 315 327 329 330 342 352 30 140 161 305 304 294 298 314 312 316 325 331 330 333 334 332 332 330 326 327 324 323 319 314
260 262 268 272 275 278 280 283 283 289 291 289 293 300 294 294 298 302 308 315 327 322 326 335 349 18 107 39 319 312 294 313 311 312 321 330 332 334 334 335 334 332 331 332 333 334 335 331 320
256 264 266 269 269 277 282 283 283 284 289 288 281 287 297 298 302 304 310 317 321 320 328 339 1 47 47 12 3 344 339 327 337 331 331 336 334 336 337 337 335 337 341 343 341 340 335 326 325
254 258 266 268 276 268 282 282 282 284 280 292 291 285 297 299 296 293 307 311 316 320 332 352 31 45 38 29 59 355 357 355 350 341 338 344 348 350 347 351 356 351 354 350 356 358 353 339 343
257 255 267 272 276 275 281 281 285 290 290 289 279 292 292 294 277 295 298 301 308 328 353 18 35 53 81 58 27 6 7 2 354 350 358 356 358 0 6 9 21 23 26 32 10 27 43 77 93
256 262 266 269 271 276 275 283 248 296 295 287 291 293 296 281 296 298 278 291 312 350 13 32 51 86 70 54 28 25 18 357 350 359 8 4 7 5 15 51 45 55 77 104 110 133 105 126 132
257 258 262 265 269 268 257 276 246 279 281 296 298 296 283 287 289 281 281 314 344 21 36 66 89 90 52 55 31 29 16 356 1 3 359 355 9 30 81 115 105 104 128 139 146 117 137 146 156
248 251 254 257 258 262 276 275 257 241 274 298 298 304 288 269 277 159 206 304 35 58 78 91 101 69 69 63 34 21 11 7 6 7 9 12 28 54 86 117 104 103 127 160 118 126 136 122 130
242 244 245 248 259 266 273 272 247 266 255 295 297 292 319 212 159 184 223 115 109 93 102 105 96 74 77 68 45 26 26 26 22 10 18 26 31 71 81 93 103 132 135 140 104 132 131 94 106
245 239 246 254 262 266 269 281 259 270 295 293 295 254 354 76 135 144 147 123 116 108 110 102 92 79 79 64 38 37 36 24 7 5 20 34 43 68 69 80 101 119 140 102 101 111 70 58 46
243 245 238 244 249 259 266 276 290 293 288 299 247 244 271 134 126 147 137 128 111 109 107 94 84 78 77 56 50 52 32 25 14 32 48 50 63 68 58 68 78 115 140 105 97 84 63 50 63
239 237 238 245 246 252 259 266 312 308 336 329 184 228 248 152 151 154 138 125 112 107 102 90 86 84 77 55 56 48 40 30 24 38 50 52 55 62 53 72 82 115 115 91 95 101 78 51 72
241 238 238 235 240 245 255 263 298 292 302 308 297 163 151 142 136 140 141 126 116 112 97 91 91 90 75 72 60 49 48 25 30 37 45 45 54 59 60 58 31 47 89 96 113 113 80 79 105